Weather History for Newport, VT

Change the Weather History Date:

Friday, March 15, 2013

  Actual Average Record
Temperature  
Mean Temperature 19 °F -  
Max Temperature 29 °F 38 °F 68 °F (1990)
Min Temperature 9 °F 18 °F -12 °F (1993)
Degree Days  
Heating Degree Days 46    
Moisture  
Dew Point 11 °F    
Average Humidity 69    
Maximum Humidity 90    
Minimum Humidity 37    
Precipitation  
Precipitation 0.00 in - - ()
Sea Level Pressure  
Sea Level Pressure 29.70 in    
Wind  
Wind Speed 4 mph (WSW)    
Max Wind Speed 8 mph    
Max Gust Speed -    
Visibility 8 miles    
Events Snow    
Averages and records for this station are not official NWS values.
T = Trace of Precipitation, MM = Missing Value Source: NWS Daily Summary

Daily Weather History Graph

Daily Weather History Graph

Search for Another Location

Airport:

Trip Planner

Search our weather history database for the weather conditions in past years. The results will help you decide how hot, cold, wet, or windy it might be!

Date:

Astronomy

Mar. 15, 2013 Rise Set
Actual Time 7:00 AM EDT 6:55 PM EDT
Civil Twilight 6:31 AM EDT 7:24 PM EDT
Nautical Twilight 5:57 AM EDT 7:58 PM EDT
Astronomical Twilight 5:23 AM EDT 8:33 PM EDT
Moon 8:38 AM EDT (3/15) 11:19 PM EDT (3/15)
Length of Visible Light 12h 52m
Length of Day
11h 54m
Waxing Crescent, 15% of the Moon is Illuminated
Mar 15
Waxing Crescent
Mar 19
First Quarter
Mar 27
Full
Apr 3
Last Quarter
Apr 10
New

Hourly Weather History & Observations

Time (EDT) Temp. Windchill Dew Point Humidity Pressure Visibility Wind Dir Wind Speed Gust Speed Precip Events Conditions
12:15 AM 14.0 °F 6.5 °F 9.5 °F 82% 29.83 in 1.2 mi NW 4.6 mph - N/A Snow Light Snow
12:35 AM 13.3 °F 4.2 °F 8.4 °F 81% 29.83 in 10.0 mi NW 5.8 mph - N/A   Mostly Cloudy
12:55 AM 13.5 °F 5.8 °F 7.5 °F 77% 29.84 in 4.0 mi WNW 4.6 mph - N/A Snow Light Snow
1:15 AM 13.1 °F 2.8 °F 5.0 °F 70% 29.83 in 10.0 mi WNW 6.9 mph - N/A   Overcast
1:35 AM 12.7 °F 3.6 °F 3.9 °F 68% 29.84 in 10.0 mi WNW 5.8 mph - N/A   Scattered Clouds
1:55 AM 12.6 °F 3.4 °F 3.7 °F 68% 29.84 in 10.0 mi WNW 5.8 mph - N/A   Scattered Clouds
2:15 AM 12.2 °F 4.3 °F 3.2 °F 67% 29.84 in 10.0 mi WNW 4.6 mph - N/A   Scattered Clouds
2:35 AM 11.7 °F 5.5 °F 2.5 °F 67% 29.84 in 10.0 mi West 3.5 mph - N/A   Scattered Clouds
2:55 AM 12.2 °F 1.7 °F 2.8 °F 66% 29.83 in 10.0 mi West 6.9 mph - N/A   Clear
3:15 AM 12.0 °F 2.7 °F 2.7 °F 66% 29.83 in 10.0 mi WNW 5.8 mph - N/A   Clear
3:35 AM 11.1 °F 4.9 °F 2.1 °F 67% 29.83 in 10.0 mi WNW 3.5 mph - N/A   Clear
3:55 AM 11.5 °F 5.3 °F 2.3 °F 67% 29.82 in 10.0 mi NW 3.5 mph - N/A   Clear
4:15 AM 11.3 °F 1.9 °F 2.3 °F 67% 29.82 in 10.0 mi WNW 5.8 mph - N/A   Clear
4:35 AM 11.3 °F 0.7 °F 2.3 °F 67% 29.82 in 10.0 mi WNW 6.9 mph - N/A   Clear
4:55 AM 11.1 °F 3.1 °F 2.1 °F 67% 29.83 in 10.0 mi WNW 4.6 mph - N/A   Clear
5:15 AM 11.3 °F -0.4 °F 2.3 °F 67% 29.83 in 10.0 mi WNW 8.1 mph - N/A   Clear
5:35 AM 11.8 °F 1.3 °F 2.1 °F 65% 29.82 in 10.0 mi West 6.9 mph - N/A   Clear
5:55 AM 11.3 °F - 1.4 °F 64% 29.82 in 10.0 mi Calm Calm - N/A   Scattered Clouds
6:15 AM 12.2 °F - 1.9 °F 64% 29.82 in 10.0 mi Calm Calm - N/A   Overcast
6:35 AM 12.2 °F - 2.1 °F 64% 29.82 in 10.0 mi Calm Calm - N/A   Overcast
6:55 AM 12.0 °F - 2.1 °F 65% 29.81 in 10.0 mi Calm Calm - N/A   Overcast
7:15 AM 9.5 °F 3.0 °F 1.0 °F 69% 29.80 in 10.0 mi SE 3.5 mph - N/A   Mostly Cloudy
7:35 AM 9.7 °F 3.2 °F 2.3 °F 72% 29.80 in 10.0 mi SSE 3.5 mph - N/A   Scattered Clouds
7:55 AM 11.5 °F 5.3 °F 3.2 °F 69% 29.80 in 10.0 mi South 3.5 mph - N/A   Clear
8:15 AM 13.1 °F - 4.1 °F 67% 29.79 in 10.0 mi Calm Calm - N/A   Clear
8:35 AM 14.4 °F - 4.1 °F 64% 29.79 in 10.0 mi Calm Calm - N/A   Clear
8:55 AM 15.4 °F 9.8 °F 4.5 °F 62% 29.78 in 10.0 mi South 3.5 mph - N/A   Clear
9:15 AM 16.0 °F 10.4 °F 5.0 °F 62% 29.77 in 10.0 mi SSE 3.5 mph - N/A   Clear
9:35 AM 17.1 °F 11.7 °F 5.0 °F 59% 29.76 in 10.0 mi SE 3.5 mph - N/A   Clear
9:55 AM 18.7 °F 13.5 °F 5.7 °F 57% 29.75 in 10.0 mi South 3.5 mph - N/A   Clear
10:15 AM 19.6 °F 11.7 °F 4.8 °F 53% 29.74 in 10.0 mi SSW 5.8 mph - N/A   Clear
10:35 AM 20.8 °F 12.1 °F 6.1 °F 53% 29.73 in 10.0 mi South 6.9 mph - N/A   Clear
10:55 AM 21.2 °F 12.6 °F 5.7 °F 51% 29.72 in 10.0 mi South 6.9 mph - N/A   Scattered Clouds
11:55 AM 24.1 °F 19.7 °F 6.3 °F 47% 29.68 in 10.0 mi ESE 3.5 mph - N/A   Mostly Cloudy
12:15 PM 25.5 °F 17.8 °F 7.9 °F 47% 29.66 in 10.0 mi ESE 6.9 mph - N/A   Mostly Cloudy
12:35 PM 26.4 °F 20.9 °F 7.2 °F 44% 29.65 in 10.0 mi South 4.6 mph - N/A   Mostly Cloudy
12:55 PM 27.9 °F 22.6 °F 5.2 °F 38% 29.64 in 10.0 mi SSW 4.6 mph - N/A   Scattered Clouds
1:15 PM 28.4 °F 22.2 °F 5.5 °F 38% 29.62 in 10.0 mi South 5.8 mph - N/A   Mostly Cloudy
1:35 PM 28.2 °F 22.0 °F 6.3 °F 39% 29.61 in 10.0 mi SSE 5.8 mph - N/A   Overcast
1:55 PM 29.1 °F 24.1 °F 5.7 °F 37% 29.60 in 10.0 mi SSW 4.6 mph - N/A   Overcast
2:15 PM 28.8 °F 23.7 °F 8.4 °F 42% 29.59 in 10.0 mi SSW 4.6 mph - N/A   Overcast
2:35 PM 28.4 °F 23.3 °F 9.9 °F 46% 29.58 in 10.0 mi South 4.6 mph - N/A   Overcast
2:55 PM 28.4 °F 20.4 °F 15.6 °F 59% 29.57 in 10.0 mi SSW 8.1 mph - N/A   Overcast
3:15 PM 27.5 °F 21.1 °F 15.3 °F 60% 29.57 in 5.0 mi SSE 5.8 mph - N/A   Haze
3:35 PM 27.3 °F 23.4 °F 17.2 °F 66% 29.56 in 10.0 mi South 3.5 mph - N/A   Overcast
3:55 PM 26.6 °F 20.0 °F 17.6 °F 69% 29.56 in 4.0 mi SW 5.8 mph - N/A Snow Light Snow
4:15 PM 26.4 °F - 19.9 °F 77% 29.56 in 1.2 mi Calm Calm - N/A Snow Light Snow
4:35 PM 26.1 °F - 21.0 °F 81% 29.56 in 1.0 mi Calm Calm - N/A Snow Light Snow
4:55 PM 25.7 °F 21.5 °F 21.9 °F 86% 29.56 in 0.5 mi SE 3.5 mph - N/A Snow Snow
5:15 PM 25.7 °F 20.1 °F 22.1 °F 86% 29.55 in 0.5 mi South 4.6 mph - N/A Snow Snow
5:35 PM 25.7 °F - 22.1 °F 86% 29.55 in 0.8 mi Calm Calm - N/A Snow Light Snow
5:55 PM 26.1 °F - 22.6 °F 87% 29.55 in 1.2 mi Calm Calm - N/A Snow Light Snow
6:15 PM 25.7 °F - 22.8 °F 89% 29.55 in 0.5 mi Calm Calm - N/A Snow Snow
6:35 PM 25.7 °F - 23.0 °F 89% 29.55 in 0.8 mi Calm Calm - N/A Snow Light Snow
6:55 PM 25.2 °F - 22.6 °F 90% 29.55 in 1.8 mi Calm Calm - N/A Snow Light Snow
7:15 PM 24.8 °F - 22.3 °F 90% 29.56 in 3.0 mi Calm Calm - N/A Snow Light Snow
7:35 PM 26.1 °F 21.9 °F 23.4 °F 90% 29.56 in 2.5 mi SSW 3.5 mph - N/A Snow Light Snow
7:55 PM 26.1 °F - 23.0 °F 88% 29.57 in 2.5 mi Calm Calm - N/A Snow Light Snow
8:15 PM 25.7 °F - 23.0 °F 89% 29.57 in 3.0 mi Calm Calm - N/A Snow Light Snow
8:35 PM 26.2 °F 18.6 °F 22.1 °F 84% 29.58 in 5.0 mi West 6.9 mph - N/A Snow Light Snow
8:55 PM 25.7 °F 18.0 °F 20.7 °F 81% 29.59 in 10.0 mi West 6.9 mph - N/A   Mostly Cloudy
9:15 PM 25.7 °F 18.0 °F 20.1 °F 79% 29.60 in 10.0 mi WNW 6.9 mph - N/A Snow Light Snow
9:35 PM 25.2 °F 16.5 °F 18.5 °F 76% 29.61 in 10.0 mi West 8.1 mph - N/A   Scattered Clouds
9:55 PM 24.3 °F 16.3 °F 17.4 °F 75% 29.62 in 10.0 mi WNW 6.9 mph - N/A   Scattered Clouds
10:15 PM 23.0 °F 15.8 °F 17.4 °F 79% 29.63 in 10.0 mi WNW 5.8 mph - N/A   Mostly Cloudy
10:55 PM 22.8 °F 18.2 °F 16.7 °F 77% 29.64 in 10.0 mi NW 3.5 mph - N/A   Overcast
11:15 PM 22.6 °F 16.5 °F 16.9 °F 79% 29.65 in 10.0 mi NW 4.6 mph - N/A   Overcast
11:35 PM 23.2 °F 18.7 °F 18.1 °F 81% 29.65 in 2.5 mi NW 3.5 mph - N/A Snow Light Snow
11:55 PM 23.0 °F 18.4 °F 18.5 °F 83% 29.65 in 4.0 mi WNW 3.5 mph - N/A Snow Light Snow